Regional Weather Roundup
Issued by NWS Charleston, SC

Current Version | Previous Version | Graphics & Text | Print | Product List | Glossary On
Versions: 1 2 3 4 5 6 7 8 9 10 11 12 13 14 15 16 17 18 19 20 21 22 23 24 25 26 27 28 29 30 31 32 33 34 35 36 37 38 39 40 41 42 43 44 45 46 47 48 49 50
000 ASUS42 KCHS 210825 RWRCHS REGIONAL WEATHER ROUNDUP NATIONAL WEATHER SERVICE CHARLESTON SC 400 AM EDT SUN SEP 21 2014 NOTE: "FAIR" INDICATES FEW OR NO CLOUDS BELOW 12,000 FEET WITH NO SIGNIFICANT WEATHER AND/OR OBSTRUCTIONS TO VISIBILITY. NOT ALL STATIONS ARE QUALITY CONTROLLED BY THE NATIONAL WEATHER SERVICE. USE DATA WITH CAUTION...ESPECIALLY DEWPOINT OBSERVATIONS. SCZ027-030-031-034>040-042>050-210900- ...SOUTH CAROLINA... CITY SKY/WX TMP DP RH WIND PRES REMARKS N CHARLESTON PTCLDY 70 64 81 NW7 29.89R WATERFRONT PRK N/A 72 N/A N/A NW5 N/A FORT JOHNSON NOT AVBL MOUNT PLEASANT FAIR 70 64 83 NW8 29.88R JOHNS ISLAND SUNNY 68 68 100 NW9 29.89R PINOPOLIS N/A 73 64 73 N16 29.81S MONCKS CORNER N/A 72 66 83 N8 29.89S SUMMERVILLE FAIR 66 64 94 NW6 29.91R BEAUFORT MCAS CLEAR 68 63 84 S8 29.92R BEAUFORT ARPT FAIR 68 64 88 NW9 29.91R HILTON HEAD IS CLEAR 72 64 78 NW6 29.92S GEORGETOWN NOT AVBL WALTERBORO SUNNY 64 N/A N/A NW3 29.92S ORANGEBURG PTCLDY 64 59 83 NW5 29.93F BARNWELL FAIR 63 61 94 NW3 29.96S AIKEN FAIR 63 63 100 CALM 30.00S MANNING FAIR 68 64 88 NW5 29.91R KINGSTREE NOT AVBL COLUMBIA CLEAR 68 59 73 NW6 29.94F SUMTER PTCLDY 65 60 82 NW9 29.91S FLORENCE PTCLDY 69 61 75 N9 29.89S MYRTLE BEACH CLOUDY 70 64 83 NW12 29.83F N MYRTLE BEACH LGT RAIN 69 66 90 N9 29.82F $$ GAZ063-065-086>088-099>101-113>116-118-119-134-136>141-150-210900- ...GEORGIA... CITY SKY/WX TMP DP RH WIND PRES REMARKS SAVANNAH ARPT CLEAR 66 61 84 N3 29.93S HUNTER AAF CLEAR 66 63 89 NW6 29.91S FORT STEWART CLEAR 65 61 86 NW5 29.93S STATESBORO NOT AVBL SYLVANIA SUNNY 65 64 97 CALM 29.96S CLAXTON FAIR N/A N/A N/A CALM 29.96R HAZE THOMSON CLEAR 61 61 100 CALM 30.03S AUGUSTA-BUSH CLEAR 59 58 96 CALM 29.96S AUGUSTA-DANIEL CLEAR 68 60 75 NW8 29.98S SWAINSBORO FAIR 63 63 100 CALM 29.98S VIDALIA CLEAR 63 61 94 N5 29.97S ALMA CLEAR 62 60 93 NW3 29.96S WAYCROSS NOT AVBL JESUP FAIR 64 63 94 CALM 29.95S BRUNSWICK CLEAR 64 63 94 CALM 29.95R SAINT SIMONS CLEAR 67 63 87 NW3 29.93S $$ SCZ027-028-034-036>038-045-046-048>050-GAZ119-141-210900- ...LAKE AND SUPPLEMENTAL COASTAL OBSERVATIONS... STATION/POSITION TIME TEMP WIND PRES WAVE SWELL AIR SEA DIR/SP/G HT/PER HT/PER/DIR (UTC) (F) (DEG/KT/KT) (MB) (FT/S) (FT/S/D) UPR LAKE MARION NOT AVBL WINYAH BAY 0800 69 330/ 7 1010.0S LAKE MURRAY 0700 67 320/ 2/ 5 1013.9F ACE BASIN NERRS 0800 67 300/ 2 1013.0R FORT PULASKI 0800 68 310/ 9/ 11 1013.2S SAPELO ISLAND 0800 68 340/ 4 1013.0S $$ ANZ835-935-AMZ111-154-330-350-352-354-374-450-454-472-210900- ...C-MAN AND BUOY OBSERVATIONS... STATION/POSITION TIME TEMP WIND PRES WAVE SWELL AIR SEA DIR/SP/G HT/PER HT/PER/DIR (UTC) (F) (DEG/KT/KT) (MB) (FT/S) (FT/S/D) FOLLY BEACH CMAN 0800 71 310/ 4/ 6 1012.1R BUOY 41004 0800 74 81 340/ 19/ 23 1009.5R 7/ 8 3/11 BUOY 41008 0800 76 83 10/ 14/ 17 1012.6F 5/ 8 3/100/ 8 5E ST. MARYS GA 0800 83 N/A 5/ 8 FRYING PAN BUOY NOT AVBL BUOY 41025 0800 76 100/ 12/ 16 1006.4F 10/ 9 8/ 90/ 9 CAPE LOOKOUT NC 0800 72 360/ 20/ 23 1005.6F BUOY 41002 0725 81 82 210/ 23/ 29 1008.1F 9/ 7 BUOY 41010 0800 80 84 280/ 16/ 17 1011.6R 4/ 9 2/ 20/ 9 BUOY 41012 NOT AVBL ST AUGUSTINE FL 0800 69 320/ 7/ 9 1014.1R CAPERS NEARSHORE 0700 72 350/ 16/ 17 N/A FRIPP NEARSHORE NOT AVBL $$

USA.gov is the U.S. government's official web portal to all federal, state and local government web resources and services.